Back to catalog

NOAA 16 DEB

AlivePO
NORAD 41494·DEBRIS·🇺🇸 United States

Launched Sep 21, 2000 from Vandenberg Space Force Base

Loading…

Next Passes (next 24 hours)

TLE

FreshSource: Space-Track

Epoch: Sep 14, 2026, 09:23 UTC

1 41494U 00055LS  26257.39152554  .00006420  00000-0  12420-2 0  9991
2 41494  98.9278 111.0064 0020396 135.7872 224.4962 14.63600586547311

Track NOAA 16 DEB in real time with AllMySat

Download on the App Store